CST,Max TemperatureF,Mean TemperatureF,Min TemperatureF,Max Dew PointF,MeanDew PointF,Min DewpointF,Max Humidity, Mean Humidity, Min Humidity, Max Sea Level PressureIn, Mean Sea Level PressureIn, Min Sea Level PressureIn, Max VisibilityMiles, Mean VisibilityMiles, Min VisibilityMiles, Max Wind SpeedMPH, Mean Wind SpeedMPH, Max Gust SpeedMPH,PrecipitationIn, CloudCover, Events, WindDirDegrees
2012-12-1,63,50,36,54,48,36,100,84,67,30.13,30.06,29.95,10,8,2,23,13,31,0.00,4,,182
2012-12-2,67,59,50,59,56,50,100,85,69,30.06,30.01,29.94,10,8,3,22,10,29,0.11,4,Rain,204
2012-12-3,72,65,58,62,59,57,100,83,66,30.04,29.96,29.86,10,8,4,32,18,39,0.00,4,,190
2012-12-4,62,50,37,56,47,36,100,80,59,30.29,30.11,29.92,10,9,5,18,9,25,0.27,4,Rain,310
2012-12-5,47,39,31,36,33,29,100,83,65,30.43,30.33,30.21,10,10,10,13,7,16,0.00,0,,74
2012-12-6,51,42,32,44,37,31,96,84,71,30.19,30.06,29.96,10,10,9,14,6,16,0.01,2,Rain,159
2012-12-7,48,46,44,48,46,44,100,100,100,29.96,29.89,29.83,8,3,0,12,5,18,0.22,8,Fog-Rain,61
2012-12-8,46,43,40,46,42,38,100,91,82,30.04,29.95,29.84,10,5,0,16,7,20,0.01,8,Fog-Rain,350
2012-12-9,50,45,39,49,43,37,100,93,86,30.01,29.85,29.77,10,6,1,21,11,29,0.26,8,Rain,152
2012-12-10,40,34,27,36,25,21,92,84,75,30.04,29.92,29.81,10,10,8,22,12,28,0.00,7,,290
2012-12-11,36,28,20,25,21,18,92,72,52,30.24,30.13,30.06,10,10,10,21,9,25,0.00,0,,218
2012-12-12,45,34,23,29,26,20,88,71,53,30.37,30.31,30.24,10,10,10,15,7,18,0.00,0,,183
2012-12-13,49,39,29,30,27,25,78,62,46,30.35,30.29,30.19,10,10,10,22,13,26,0.00,0,,190
2012-12-14,53,42,30,39,33,27,92,73,54,30.24,30.16,30.04,10,10,10,14,8,18,0.00,1,,183
2012-12-15,54,49,43,52,47,35,100,83,65,30.00,29.75,29.62,10,9,2,28,15,37,0.33,8,Rain,180
2012-12-16,50,45,40,49,41,36,100,91,82,29.78,29.72,29.67,10,10,9,18,9,22,0.00,8,,282
2012-12-17,40,37,34,38,36,35,100,93,85,29.79,29.72,29.65,10,6,3,10,5,13,0.05,8,Rain,344
2012-12-18,50,42,33,40,35,32,100,83,66,29.91,29.77,29.63,10,8,6,28,13,36,0.00,4,,234
2012-12-19,46,40,33,45,37,32,100,91,82,30.06,29.92,29.63,10,8,5,23,11,30,0.23,8,Rain-Thunderstorm,83
2012-12-20,55,40,25,52,37,20,100,88,76,29.78,29.37,29.17,10,6,1,40,25,58,0.72,8,Rain-Snow,231
2012-12-21,29,24,19,19,16,13,84,71,58,30.29,30.08,29.81,10,10,10,32,18,44,0.00,2,,296
2012-12-22,38,26,14,26,18,11,88,71,54,30.30,30.17,29.93,10,10,10,15,6,18,0.00,0,,198
2012-12-23,39,32,28,30,28,26,92,78,64,30.01,29.94,29.91,10,9,5,12,6,,0.00,0,,60
2012-12-24,34,29,24,29,25,19,92,84,75,30.14,29.96,29.81,9,6,3,22,11,32,0.00,7,,313
2012-12-25,34,29,24,27,24,19,88,79,69,30.29,30.18,30.07,10,9,5,24,14,30,0.00,8,,14
2012-12-26,34,32,29,25,23,21,78,71,64,30.13,30.01,29.92,10,10,10,30,19,40,0.00,8,,357
2012-12-27,31,30,28,23,21,20,78,71,63,30.22,30.16,30.12,10,10,10,14,6,16,0.00,8,,14
2012-12-28,34,32,29,29,26,22,85,80,75,30.12,29.99,29.88,10,8,5,12,6,,0.00,8,,156
2012-12-29,32,25,18,28,20,13,92,78,63,30.34,30.10,29.86,10,7,3,23,13,29,T,6,Snow,301
2012-12-30,38,27,16,25,20,13,84,72,59,30.43,30.34,30.22,10,8,5,18,10,24,0.00,0,,209
2012-12-31,36,31,25,31,27,20,92,76,59,30.19,30.13,30.08,10,4,0,22,10,26,0.07,7,Fog-Snow,249